User: anonymous   Login
Location: Vallejo Observatory
(38.1221°N, 122.2109°W)
Time: 15:44:03
(UTC-07:00)
Language:

MOS 1 Rocket - Orbit

View from above orbital plane
View from above orbital plane
View from above satellite
View from above satellite

Ground track
Ground track

The orbit data is extracted from the following two-line orbital elements,

1 17528U 87018B   15242.15037756  .00000142  00000-0  40685-4 0  9999
2 17528 097.4114 265.5671 0152614 197.2067 203.8010 14.50480284504621
Epoch (UTC): 30 August 2015 03:36:32
Eccentricity: 0.0152614
inclination: 97.4114°
perigee height: 615 km
apogee height: 832 km
right ascension of ascending node: 265.5671°
argument of perigee: 197.2067°
revolutions per day: 14.50480284
mean anomaly at epoch: 203.8010°
orbit number at epoch: 50462

The dashed part of the orbit path shows where the satellite is in the earth's shadow,  

DLR